| time (UTC) | temp F | wind direction | speed knots | gust knots | rain 1hr in | rain 24hr in | rain mn in | humidity % | barometer mb |
| 20260904115508 | 77 | 116 | 0.0 | 2.6 | 0.00 | 0.00 | 0.00 | 89 | 1014.7 |
| 20260904115008 | 76 | 50 | 0.0 | 1.7 | 0.00 | 0.00 | 0.00 | 91 | 1014.6 |
| 20260904114515 | 76 | 50 | 0.0 | 2.6 | 0.00 | 0.00 | 0.00 | 92 | 1014.7 |
| 20260904114008 | 75 | 50 | 0.0 | 2.6 | 0.00 | 0.00 | 0.00 | 93 | 1014.6 |
| 20260904113505 | 75 | 5 | 0.0 | 0.0 | 0.00 | 0.00 | 0.00 | 94 | 1014.6 |
| 20260904113022 | 75 | 350 | 0.0 | 0.0 | 0.00 | 0.00 | 0.00 | 94 | 1014.5 |
| 20260904112507 | 75 | 350 | 0.0 | 0.0 | 0.00 | 0.00 | 0.00 | 94 | 1014.6 |
| 20260904112009 | 75 | 350 | 0.0 | 0.0 | 0.00 | 0.00 | 0.00 | 94 | 1014.7 |
| 20260904111510 | 75 | 350 | 0.0 | 0.0 | 0.00 | 0.00 | 0.00 | 93 | 1014.6 |
| 20260904111008 | 75 | 350 | 0.0 | 0.0 | 0.00 | 0.00 | 0.00 | 93 | 1014.6 |
| 20260904110506 | 75 | 350 | 0.0 | 0.0 | 0.00 | 0.00 | 0.00 | 93 | 1014.6 |
| 20260904110012 | 75 | 350 | 0.0 | 0.0 | 0.00 | 0.00 | 0.00 | 93 | 1014.6 |
| 20260904105510 | 75 | 350 | 0.0 | 0.0 | 0.00 | 0.00 | 0.00 | 93 | 1014.6 |
| 20260904105008 | 75 | 350 | 0.0 | 0.0 | 0.00 | 0.00 | 0.00 | 93 | 1014.6 |
| 20260904104510 | 76 | 350 | 0.0 | 0.0 | 0.00 | 0.00 | 0.00 | 93 | 1014.6 |
| 20260904104010 | 76 | 350 | 0.0 | 0.0 | 0.00 | 0.00 | 0.00 | 92 | 1014.5 |
| 20260904103509 | 76 | 350 | 0.0 | 0.0 | 0.00 | 0.00 | 0.00 | 92 | 1014.4 |
| 20260904103012 | 76 | 350 | 0.0 | 0.0 | 0.00 | 0.00 | 0.00 | 92 | 1014.4 |
| 20260904102507 | 76 | 350 | 0.0 | 0.0 | 0.00 | 0.00 | 0.00 | 92 | 1014.4 |
| 20260904102008 | 76 | 350 | 0.0 | 0.0 | 0.00 | 0.00 | 0.00 | 92 | 1014.3 |
| 20260904101512 | 76 | 350 | 0.0 | 0.0 | 0.00 | 0.00 | 0.00 | 92 | 1014.4 |
| 20260904101007 | 76 | 350 | 0.0 | 0.0 | 0.00 | 0.00 | 0.00 | 92 | 1014.4 |
| 20260904100507 | 76 | 350 | 0.0 | 0.0 | 0.00 | 0.00 | 0.00 | 92 | 1014.4 |
| 20260904100014 | 76 | 350 | 0.0 | 0.0 | 0.00 | 0.00 | 0.00 | 92 | 1014.4 |
| 20260904095509 | 76 | 350 | 0.0 | 0.0 | 0.00 | 0.00 | 0.00 | 92 | 1014.4 |
| 20260904095012 | 76 | 350 | 0.0 | 0.0 | 0.00 | 0.00 | 0.00 | 92 | 1014.3 |
| 20260904094525 | 76 | 350 | 0.0 | 0.0 | 0.00 | 0.00 | 0.00 | 92 | 1014.5 |
| 20260904094011 | 76 | 350 | 0.0 | 0.0 | 0.00 | 0.00 | 0.00 | 91 | 1014.4 |
| 20260904093509 | 76 | 350 | 0.0 | 0.0 | 0.00 | 0.00 | 0.00 | 91 | 1014.5 |
| 20260904093013 | 76 | 350 | 0.0 | 0.0 | 0.00 | 0.00 | 0.00 | 91 | 1014.6 |
| 20260904092510 | 77 | 350 | 0.0 | 0.0 | 0.00 | 0.00 | 0.00 | 91 | 1014.6 |
| 20260904092010 | 77 | 350 | 0.0 | 0.0 | 0.00 | 0.00 | 0.00 | 90 | 1014.7 |
| 20260904091516 | 77 | 350 | 0.0 | 0.0 | 0.00 | 0.00 | 0.00 | 90 | 1014.7 |
| 20260904091013 | 77 | 350 | 0.0 | 0.0 | 0.00 | 0.00 | 0.00 | 90 | 1014.9 |
| 20260904090509 | 77 | 350 | 0.0 | 0.0 | 0.00 | 0.00 | 0.00 | 90 | 1014.8 |
| 20260904090017 | 77 | 350 | 0.0 | 0.0 | 0.00 | 0.00 | 0.00 | 89 | 1014.7 |
| 20260904085515 | 78 | 350 | 0.0 | 0.0 | 0.00 | 0.00 | 0.00 | 89 | 1014.7 |
| 20260904085009 | 78 | 350 | 0.0 | 0.0 | 0.00 | 0.00 | 0.00 | 89 | 1014.6 |
| 20260904084518 | 78 | 350 | 0.0 | 0.0 | 0.00 | 0.00 | 0.00 | 88 | 1014.6 |
| 20260904084012 | 78 | 350 | 0.0 | 2.6 | 0.00 | 0.00 | 0.00 | 88 | 1014.5 |
| 20260904083512 | 78 | 350 | 0.0 | 2.6 | 0.00 | 0.00 | 0.00 | 87 | 1014.5 |
| 20260904083018 | 78 | 348 | 0.0 | 2.6 | 0.00 | 0.00 | 0.00 | 87 | 1014.4 |
| 20260904082512 | 78 | 306 | 0.0 | 1.7 | 0.00 | 0.00 | 0.00 | 88 | 1014.3 |
| 20260904082010 | 78 | 120 | 0.0 | 1.7 | 0.00 | 0.00 | 0.00 | 87 | 1014.2 |
| 20260904081519 | 78 | 114 | 0.0 | 0.0 | 0.00 | 0.00 | 0.00 | 87 | 1014.2 |
| 20260904081012 | 78 | 114 | 0.0 | 0.0 | 0.00 | 0.00 | 0.00 | 87 | 1014.4 |
| 20260904080511 | 78 | 114 | 0.0 | 1.7 | 0.00 | 0.00 | 0.00 | 87 | 1014.2 |
| 20260904080020 | 78 | 114 | 0.0 | 1.7 | 0.00 | 0.00 | 0.00 | 87 | 1014.3 |
| 20260904075515 | 79 | 114 | 0.0 | 1.7 | 0.00 | 0.00 | 0.00 | 86 | 1014.2 |
| 20260904075014 | 79 | 123 | 0.0 | 0.9 | 0.00 | 0.00 | 0.00 | 87 | 1014.1 |
| 20260904074517 | 79 | 123 | 0.0 | 0.9 | 0.00 | 0.00 | 0.00 | 86 | 1014.0 |
| 20260904074017 | 79 | 123 | 0.0 | 0.9 | 0.00 | 0.00 | 0.00 | 86 | 1013.8 |
| 20260904073516 | 79 | 123 | 0.0 | 0.9 | 0.00 | 0.00 | 0.00 | 86 | 1013.9 |
| 20260904073020 | 79 | 156 | 0.0 | 0.0 | 0.00 | 0.00 | 0.00 | 86 | 1013.9 |
| 20260904072511 | 79 | 155 | 0.0 | 0.0 | 0.00 | 0.00 | 0.00 | 86 | 1013.9 |
| 20260904072013 | 79 | 155 | 0.0 | 0.0 | 0.00 | 0.00 | 0.00 | 86 | 1013.9 |
| 20260904071521 | 79 | 156 | 0.0 | 0.0 | 0.00 | 0.00 | 0.00 | 86 | 1013.9 |
| 20260904071015 | 80 | 155 | 0.0 | 0.0 | 0.00 | 0.00 | 0.00 | 85 | 1014.0 |
| 20260904070517 | 80 | 63 | 0.0 | 0.0 | 0.00 | 0.00 | 0.00 | 85 | 1014.1 |
| 20260904070023 | 80 | 63 | 0.0 | 0.0 | 0.00 | 0.00 | 0.00 | 84 | 1014.1 |
| 20260904065518 | 80 | 63 | 0.0 | 0.0 | 0.00 | 0.00 | 0.00 | 84 | 1014.2 |
| 20260904065011 | 81 | 63 | 0.0 | 0.0 | 0.00 | 0.00 | 0.00 | 83 | 1014.3 |
| 20260904064528 | 81 | 63 | 0.0 | 0.9 | 0.00 | 0.00 | 0.00 | 82 | 1014.1 |
| 20260904064003 | 81 | 63 | 0.0 | 1.7 | 0.00 | 0.00 | 0.00 | 82 | 1014.2 |
| 20260904063510 | 81 | 115 | 0.0 | 1.7 | 0.00 | 0.00 | 0.00 | 81 | 1013.9 |
| 20260904063027 | 82 | 136 | 0.0 | 1.7 | 0.00 | 0.00 | 0.00 | 81 | 1013.9 |
| 20260904062506 | 82 | 109 | 0.0 | 1.7 | 0.00 | 0.00 | 0.00 | 81 | 1014.2 |
| 20260904062012 | 82 | 65 | 0.0 | 1.7 | 0.00 | 0.00 | 0.00 | 80 | 1014.8 |
| 20260904061535 | 82 | 5 | 0.0 | 2.6 | 0.00 | 0.00 | 0.00 | 80 | 1014.8 |
| 20260904061008 | 82 | 126 | 0.0 | 7.8 | 0.00 | 0.00 | 0.00 | 80 | 1014.4 |
| 20260904060514 | 82 | 310 | 1.7 | 7.8 | 0.00 | 0.00 | 0.00 | 80 | 1015.2 |
| 20260904060037 | 82 | 293 | 1.7 | 4.3 | 0.00 | 0.00 | 0.00 | 78 | 1015.3 |
| 20260904055506 | 83 | 348 | 0.0 | 2.6 | 0.00 | 0.00 | 0.00 | 77 | 1014.5 |
| 20260904055015 | 83 | 350 | 0.0 | 2.6 | 0.00 | 0.00 | 0.00 | 77 | 1014.3 |
| 20260904054538 | 83 | 5 | 0.0 | 1.7 | 0.00 | 0.00 | 0.00 | 76 | 1014.2 |
| 20260904054006 | 84 | 5 | 0.0 | 4.3 | 0.00 | 0.00 | 0.00 | 76 | 1014.2 |
| 20260904053514 | 84 | 5 | 0.0 | 4.3 | 0.00 | 0.00 | 0.00 | 75 | 1014.2 |
| 20260904053023 | 84 | 355 | 0.0 | 4.3 | 0.00 | 0.00 | 0.00 | 74 | 1014.1 |
| 20260904052510 | 84 | 115 | 0.0 | 3.5 | 0.00 | 0.00 | 0.00 | 74 | 1014.1 |
| 20260904052012 | 84 | 165 | 0.9 | 5.2 | 0.00 | 0.00 | 0.00 | 74 | 1014.2 |
| 20260904051504 | 84 | 58 | 0.0 | 5.2 | 0.00 | 0.00 | 0.00 | 75 | 1014.2 |
| 20260904051014 | 84 | 94 | 0.0 | 3.5 | 0.00 | 0.00 | 0.00 | 74 | 1014.3 |
| 20260904050516 | 84 | 187 | 0.0 | 2.6 | 0.00 | 0.00 | 0.00 | 74 | 1014.4 |
| 20260904050006 | 85 | 97 | 0.0 | 2.6 | 0.00 | 0.00 | 0.00 | 74 | 1014.5 |
| 20260904045511 | 85 | 179 | 0.9 | 3.5 | 0.00 | 0.00 | 0.00 | 74 | 1014.5 |
| 20260904045019 | 85 | 165 | 0.0 | 3.5 | 0.00 | 0.00 | 0.00 | 74 | 1014.5 |
| 20260904044509 | 85 | 169 | 0.0 | 4.3 | 0.00 | 0.00 | 0.00 | 74 | 1014.5 |
| 20260904044008 | 84 | 211 | 0.9 | 6.1 | 0.00 | 0.00 | 0.00 | 74 | 1014.5 |
| 20260904043516 | 84 | 184 | 0.0 | 6.1 | 0.00 | 0.00 | 0.00 | 75 | 1014.7 |
| 20260904043010 | 84 | 109 | 0.0 | 2.6 | 0.00 | 0.00 | 0.00 | 75 | 1014.6 |
| 20260904042512 | 84 | 168 | 0.0 | 2.6 | 0.00 | 0.00 | 0.00 | 75 | 1014.6 |
| 20260904042014 | 84 | 146 | 0.0 | 2.6 | 0.00 | 0.00 | 0.00 | 76 | 1014.5 |
| 20260904041514 | 84 | 139 | 0.9 | 4.3 | 0.00 | 0.00 | 0.00 | 76 | 1014.7 |
| 20260904041011 | 84 | 146 | 0.9 | 4.3 | 0.00 | 0.00 | 0.00 | 76 | 1014.6 |
| 20260904040513 | 84 | 164 | 0.0 | 3.5 | 0.00 | 0.00 | 0.00 | 76 | 1014.6 |
| 20260904040021 | 84 | 140 | 1.7 | 3.5 | 0.00 | 0.00 | 0.00 | 76 | 1014.6 |
| 20260904035514 | 84 | 154 | 0.0 | 4.3 | 0.00 | 0.00 | 0.00 | 76 | 1014.6 |
| 20260904035021 | 84 | 149 | 1.7 | 5.2 | 0.00 | 0.00 | 0.00 | 77 | 1014.5 |
| 20260904034513 | 84 | 166 | 0.9 | 5.2 | 0.00 | 0.00 | 0.00 | 77 | 1014.7 |
| 20260904034010 | 84 | 159 | 0.9 | 4.3 | 0.00 | 0.00 | 0.00 | 77 | 1014.8 |
| 20260904033516 | 84 | 126 | 0.9 | 4.3 | 0.00 | 0.00 | 0.00 | 77 | 1015.0 |
| 20260904033009 | 84 | 168 | 0.0 | 3.5 | 0.00 | 0.00 | 0.00 | 77 | 1015.2 |
| 20260904032511 | 84 | 192 | 0.0 | 1.7 | 0.00 | 0.00 | 0.00 | 77 | 1015.2 |
| 20260904032013 | 84 | 181 | 0.0 | 4.3 | 0.00 | 0.00 | 0.00 | 77 | 1015.0 |
| 20260904031520 | 84 | 164 | 0.0 | 4.3 | 0.00 | 0.00 | 0.00 | 77 | 1015.0 |
| 20260904031014 | 84 | 134 | 0.9 | 4.3 | 0.00 | 0.00 | 0.00 | 77 | 1014.9 |
| 20260904030515 | 84 | 137 | 0.9 | 4.3 | 0.00 | 0.00 | 0.00 | 77 | 1014.9 |
| 20260904030015 | 84 | 108 | 1.7 | 4.3 | 0.00 | 0.00 | 0.00 | 78 | 1015.0 |
| 20260904025513 | 84 | 120 | 0.0 | 4.3 | 0.00 | 0.00 | 0.00 | 78 | 1014.9 |
| 20260904025017 | 84 | 107 | 0.0 | 3.5 | 0.00 | 0.00 | 0.00 | 79 | 1014.8 |
| 20260904024513 | 84 | 125 | 0.9 | 5.2 | 0.00 | 0.00 | 0.00 | 79 | 1014.7 |
| 20260904024014 | 84 | 111 | 0.9 | 5.2 | 0.00 | 0.00 | 0.00 | 80 | 1014.7 |
| 20260904023517 | 84 | 142 | 0.0 | 3.5 | 0.00 | 0.00 | 0.00 | 80 | 1014.8 |
| 20260904023018 | 83 | 161 | 0.9 | 3.5 | 0.00 | 0.00 | 0.00 | 81 | 1014.7 |
| 20260904022518 | 83 | 182 | 0.9 | 4.3 | 0.00 | 0.00 | 0.00 | 82 | 1014.7 |
| 20260904022018 | 82 | 139 | 0.9 | 5.2 | 0.00 | 0.00 | 0.00 | 83 | 1014.7 |
| 20260904021527 | 81 | 143 | 0.0 | 5.2 | 0.00 | 0.00 | 0.00 | 84 | 1014.6 |
| 20260904021014 | 81 | 131 | 0.0 | 4.3 | 0.00 | 0.00 | 0.00 | 86 | 1014.7 |
| 20260904020521 | 80 | 187 | 0.0 | 1.7 | 0.00 | 0.00 | 0.00 | 86 | 1014.7 |
| 20260904020018 | 80 | 148 | 0.0 | 0.0 | 0.00 | 0.00 | 0.00 | 86 | 1014.8 |
| 20260904015515 | 80 | 148 | 0.0 | 0.0 | 0.00 | 0.00 | 0.00 | 85 | 1014.9 |
| 20260904015021 | 81 | 148 | 0.0 | 0.0 | 0.00 | 0.00 | 0.00 | 85 | 1015.0 |
| 20260904014517 | 81 | 148 | 0.0 | 0.0 | 0.00 | 0.00 | 0.00 | 85 | 1015.1 |
| 20260904014017 | 81 | 148 | 0.0 | 0.0 | 0.00 | 0.00 | 0.00 | 84 | 1015.1 |
| 20260904013516 | 81 | 148 | 0.0 | 0.0 | 0.00 | 0.00 | 0.00 | 84 | 1015.2 |
| 20260904013020 | 81 | 148 | 0.0 | 0.0 | 0.00 | 0.00 | 0.00 | 84 | 1015.1 |
| 20260904012516 | 81 | 148 | 0.0 | 0.0 | 0.00 | 0.00 | 0.00 | 84 | 1015.2 |
| 20260904012016 | 81 | 148 | 0.0 | 0.0 | 0.00 | 0.00 | 0.00 | 83 | 1015.3 |
| 20260904011519 | 82 | 148 | 0.0 | 0.0 | 0.00 | 0.00 | 0.00 | 83 | 1015.3 |
| 20260904011016 | 82 | 148 | 0.0 | 0.0 | 0.00 | 0.00 | 0.00 | 83 | 1015.3 |
| 20260904010519 | 82 | 148 | 0.0 | 0.0 | 0.00 | 0.00 | 0.00 | 82 | 1015.4 |
| 20260904010023 | 82 | 148 | 0.0 | 0.0 | 0.00 | 0.00 | 0.00 | 82 | 1015.4 |
| 20260904005516 | 82 | 148 | 0.0 | 0.0 | 0.00 | 0.00 | 0.00 | 82 | 1015.4 |
| 20260904005016 | 83 | 148 | 0.0 | 0.0 | 0.00 | 0.00 | 0.00 | 82 | 1015.4 |
| 20260904004526 | 83 | 148 | 0.0 | 0.0 | 0.00 | 0.00 | 0.00 | 81 | 1015.4 |
| 20260904004004 | 83 | 148 | 0.0 | 0.0 | 0.00 | 0.00 | 0.00 | 81 | 1015.3 |
| 20260904003510 | 83 | 148 | 0.0 | 0.0 | 0.00 | 0.00 | 0.00 | 81 | 1015.3 |
| 20260904003027 | 83 | 148 | 0.0 | 0.0 | 0.00 | 0.00 | 0.00 | 80 | 1015.3 |
| 20260904002507 | 84 | 148 | 0.0 | 0.0 | 0.00 | 0.00 | 0.00 | 80 | 1015.2 |
| 20260904002010 | 84 | 148 | 0.0 | 0.0 | 0.00 | 0.00 | 0.00 | 80 | 1015.1 |
| 20260904001503 | 84 | 148 | 0.0 | 0.9 | 0.00 | 0.00 | 0.00 | 80 | 1015.0 |
| 20260904001008 | 84 | 148 | 0.0 | 0.9 | 0.00 | 0.00 | 0.00 | 79 | 1015.0 |
| 20260904000509 | 85 | 148 | 0.0 | 0.0 | 0.00 | 0.00 | 0.00 | 78 | 1014.9 |
| 20260904000003 | 85 | 148 | 0.0 | 0.0 | 0.00 | 0.00 | 0.00 | 78 | 1014.6 |
| 20260903235505 | 85 | 148 | 0.0 | 0.9 | 0.00 | 0.00 | 0.00 | 78 | 1014.6 |
| 20260903235011 | 86 | 148 | 0.0 | 0.9 | 0.00 | 0.00 | 0.00 | 77 | 1014.5 |
| 20260903234504 | 86 | 148 | 0.0 | 0.0 | 0.00 | 0.00 | 0.00 | 76 | 1014.4 |
| 20260903234005 | 87 | 148 | 0.0 | 0.0 | 0.00 | 0.00 | 0.00 | 76 | 1014.5 |
| 20260903233514 | 87 | 148 | 0.0 | 0.0 | 0.00 | 0.00 | 0.00 | 75 | 1014.4 |
| 20260903233003 | 87 | 148 | 0.0 | 0.0 | 0.00 | 0.00 | 0.00 | 75 | 1014.3 |
| 20260903232506 | 88 | 148 | 0.0 | 0.0 | 0.00 | 0.00 | 0.00 | 74 | 1014.4 |
| 20260903232010 | 88 | 148 | 0.0 | 0.0 | 0.00 | 0.00 | 0.00 | 74 | 1014.4 |
| 20260903231503 | 89 | 148 | 0.0 | 0.0 | 0.00 | 0.00 | 0.00 | 73 | 1014.4 |
| 20260903231005 | 89 | 148 | 0.0 | 0.0 | 0.00 | 0.00 | 0.00 | 73 | 1014.3 |
| 20260903230514 | 89 | 148 | 0.0 | 0.0 | 0.00 | 0.00 | 0.00 | 73 | 1014.2 |
| 20260903230003 | 89 | 148 | 0.0 | 0.0 | 0.00 | 0.00 | 0.00 | 72 | 1014.2 |
| 20260903225509 | 89 | 148 | 0.0 | 0.0 | 0.00 | 0.00 | 0.00 | 72 | 1014.3 |
| 20260903225013 | 90 | 148 | 0.0 | 0.0 | 0.00 | 0.00 | 0.00 | 71 | 1014.3 |
| 20260903224503 | 90 | 148 | 0.0 | 0.0 | 0.00 | 0.00 | 0.00 | 71 | 1014.2 |
| 20260903224012 | 90 | 148 | 0.0 | 0.0 | 0.00 | 0.00 | 0.00 | 70 | 1014.1 |
| 20260903223515 | 90 | 148 | 0.0 | 0.0 | 0.00 | 0.00 | 0.00 | 69 | 1014.2 |
| 20260903223003 | 90 | 148 | 0.0 | 0.0 | 0.00 | 0.00 | 0.00 | 67 | 1014.3 |
| 20260903222511 | 90 | 148 | 0.0 | 0.0 | 0.00 | 0.00 | 0.00 | 68 | 1014.2 |
| 20260903222014 | 90 | 148 | 0.0 | 0.0 | 0.00 | 0.00 | 0.00 | 68 | 1014.1 |
| 20260903221504 | 91 | 148 | 0.0 | 0.0 | 0.00 | 0.00 | 0.00 | 68 | 1014.2 |
| 20260903221009 | 91 | 148 | 0.0 | 0.0 | 0.00 | 0.00 | 0.00 | 66 | 1014.3 |
| 20260903220515 | 92 | 148 | 0.0 | 0.0 | 0.00 | 0.00 | 0.00 | 66 | 1014.3 |
| 20260903220003 | 92 | 148 | 0.0 | 0.0 | 0.00 | 0.00 | 0.00 | 63 | 1014.4 |
| 20260903215514 | 92 | 148 | 0.0 | 0.0 | 0.00 | 0.00 | 0.00 | 61 | 1014.5 |
| 20260903215013 | 93 | 148 | 0.0 | 0.0 | 0.00 | 0.00 | 0.00 | 60 | 1014.4 |
| 20260903214510 | 93 | 148 | 0.0 | 0.0 | 0.00 | 0.00 | 0.00 | 58 | 1014.4 |
| 20260903214010 | 94 | 148 | 0.0 | 0.0 | 0.00 | 0.00 | 0.00 | 57 | 1014.4 |
| 20260903213518 | 94 | 148 | 0.0 | 0.0 | 0.00 | 0.00 | 0.00 | 56 | 1014.3 |
| 20260903213007 | 94 | 148 | 0.0 | 0.0 | 0.00 | 0.00 | 0.00 | 54 | 1014.3 |
| 20260903212510 | 95 | 148 | 0.0 | 0.0 | 0.00 | 0.00 | 0.00 | 54 | 1014.3 |
| 20260903212016 | 95 | 148 | 0.0 | 0.0 | 0.00 | 0.00 | 0.00 | 52 | 1014.3 |
| 20260903211507 | 95 | 103 | 0.0 | 1.7 | 0.00 | 0.00 | 0.00 | 52 | 1014.3 |
| 20260903211012 | 95 | 152 | 0.0 | 1.7 | 0.00 | 0.00 | 0.00 | 50 | 1014.4 |
| 20260903210518 | 95 | 199 | 0.0 | 0.9 | 0.00 | 0.00 | 0.00 | 52 | 1014.5 |
| 20260903210010 | 95 | 63 | 0.0 | 1.7 | 0.00 | 0.00 | 0.00 | 50 | 1014.6 |
| 20260903205514 | 95 | 5 | 0.0 | 1.7 | 0.00 | 0.00 | 0.00 | 52 | 1014.5 |
| 20260903205020 | 95 | 130 | 0.0 | 2.6 | 0.00 | 0.00 | 0.00 | 55 | 1014.5 |
| 20260903204511 | 95 | 5 | 0.0 | 5.2 | 0.00 | 0.00 | 0.00 | 55 | 1014.6 |
| 20260903204012 | 95 | 339 | 1.7 | 4.3 | 0.00 | 0.00 | 0.00 | 55 | 1014.7 |
| 20260903203514 | 95 | 318 | 0.0 | 1.7 | 0.00 | 0.00 | 0.00 | 55 | 1014.7 |
| 20260903203010 | 95 | 43 | 0.0 | 1.7 | 0.00 | 0.00 | 0.00 | 54 | 1014.7 |
| 20260903202511 | 95 | 349 | 0.0 | 3.5 | 0.00 | 0.00 | 0.00 | 55 | 1014.8 |
| 20260903202018 | 95 | 32 | 0.9 | 3.5 | 0.00 | 0.00 | 0.00 | 56 | 1014.9 |
| 20260903201513 | 95 | 329 | 0.0 | 3.5 | 0.00 | 0.00 | 0.00 | 56 | 1015.1 |
| 20260903201019 | 95 | 341 | 0.0 | 3.5 | 0.00 | 0.00 | 0.00 | 55 | 1015.1 |
| 20260903200517 | 95 | 9 | 0.9 | 2.6 | 0.00 | 0.00 | 0.00 | 56 | 1015.1 |
| 20260903200012 | 95 | 335 | 0.0 | 2.6 | 0.00 | 0.00 | 0.00 | 55 | 1015.3 |
| 20260903195515 | 94 | 19 | 0.9 | 2.6 | 0.00 | 0.00 | 0.00 | 56 | 1015.4 |
| 20260903195019 | 94 | 336 | 0.0 | 2.6 | 0.00 | 0.00 | 0.00 | 57 | 1015.4 |
| 20260903194514 | 95 | 346 | 0.9 | 3.5 | 0.00 | 0.00 | 0.00 | 57 | 1015.4 |
| 20260903194020 | 95 | 355 | 0.0 | 3.5 | 0.00 | 0.00 | 0.00 | 57 | 1015.5 |
| 20260903193517 | 95 | 28 | 1.7 | 3.5 | 0.00 | 0.00 | 0.00 | 56 | 1015.5 |
| 20260903193018 | 96 | 296 | 0.0 | 1.7 | 0.00 | 0.00 | 0.00 | 56 | 1015.6 |
| 20260903192513 | 96 | 355 | 0.0 | 2.6 | 0.00 | 0.00 | 0.00 | 55 | 1015.5 |
| 20260903192017 | 96 | 286 | 0.0 | 3.5 | 0.00 | 0.00 | 0.00 | 52 | 1015.6 |
| 20260903191540 | 96 | 340 | 0.0 | 3.5 | 0.00 | 0.00 | 0.00 | 52 | 1015.6 |
| 20260903191017 | 96 | 335 | 0.0 | 2.6 | 0.00 | 0.00 | 0.00 | 52 | 1015.7 |
| 20260903190518 | 96 | 304 | 0.0 | 2.6 | 0.00 | 0.00 | 0.00 | 54 | 1015.8 |
| 20260903190016 | 95 | 116 | 0.0 | 3.5 | 0.00 | 0.00 | 0.00 | 55 | 1015.9 |
| 20260903185513 | 96 | 340 | 0.0 | 3.5 | 0.00 | 0.00 | 0.00 | 56 | 1016.0 |
| 20260903185017 | 95 | 355 | 0.9 | 3.5 | 0.00 | 0.00 | 0.00 | 56 | 1016.1 |
| 20260903184520 | 96 | 317 | 0.0 | 2.6 | 0.00 | 0.00 | 0.00 | 56 | 1016.1 |
| 20260903184016 | 96 | 329 | 0.0 | 2.6 | 0.00 | 0.00 | 0.00 | 54 | 1016.2 |
| 20260903183508 | 95 | 32 | 0.0 | 2.6 | 0.00 | 0.00 | 0.00 | 61 | 1016.2 |
| 20260903183027 | 95 | 355 | 0.0 | 2.6 | 0.00 | 0.00 | 0.00 | 57 | 1016.2 |
| 20260903182514 | 95 | 30 | 0.0 | 4.3 | 0.00 | 0.00 | 0.00 | 59 | 1016.2 |
| 20260903182006 | 94 | 301 | 0.0 | 4.3 | 0.00 | 0.00 | 0.00 | 57 | 1016.2 |
| 20260903181519 | 94 | 349 | 0.0 | 2.6 | 0.00 | 0.00 | 0.00 | 59 | 1016.4 |
| 20260903181014 | 95 | 180 | 0.0 | 2.6 | 0.00 | 0.00 | 0.00 | 59 | 1016.6 |
| 20260903180506 | 94 | 143 | 0.0 | 3.5 | 0.00 | 0.00 | 0.00 | 60 | 1016.7 |
| 20260903180031 | 93 | 30 | 0.0 | 3.5 | 0.00 | 0.00 | 0.00 | 60 | 1016.8 |
| 20260903175517 | 93 | 9 | 0.9 | 3.5 | 0.00 | 0.00 | 0.00 | 60 | 1016.8 |
| 20260903175007 | 94 | 319 | 0.0 | 2.6 | 0.00 | 0.00 | 0.00 | 59 | 1016.7 |
| 20260903174525 | 93 | 340 | 0.9 | 2.6 | 0.00 | 0.00 | 0.00 | 63 | 1016.8 |
| 20260903174015 | 93 | 336 | 0.9 | 2.6 | 0.00 | 0.00 | 0.00 | 63 | 1016.7 |
| 20260903173511 | 92 | 301 | 0.9 | 4.3 | 0.00 | 0.00 | 0.00 | 63 | 1016.8 |
| 20260903173025 | 92 | 5 | 1.7 | 4.3 | 0.00 | 0.00 | 0.00 | 63 | 1016.8 |
| 20260903172517 | 92 | 20 | 0.9 | 3.5 | 0.00 | 0.00 | 0.00 | 65 | 1016.8 |
| 20260903172010 | 92 | 337 | 0.0 | 4.3 | 0.00 | 0.00 | 0.00 | 65 | 1016.9 |
| 20260903171535 | 91 | 74 | 0.9 | 4.3 | 0.00 | 0.00 | 0.00 | 67 | 1016.8 |
| 20260903171019 | 92 | 316 | 0.9 | 3.5 | 0.00 | 0.00 | 0.00 | 65 | 1016.9 |
| 20260903170510 | 92 | 46 | 0.0 | 2.6 | 0.00 | 0.00 | 0.00 | 65 | 1016.9 |
| 20260903170031 | 92 | 31 | 0.9 | 2.6 | 0.00 | 0.00 | 0.00 | 66 | 1017.0 |
| 20260903165517 | 92 | 305 | 0.0 | 4.3 | 0.00 | 0.00 | 0.00 | 65 | 1017.0 |
| 20260903165014 | 91 | 332 | 0.0 | 4.3 | 0.00 | 0.00 | 0.00 | 68 | 1017.2 |
| 20260903164526 | 91 | 351 | 0.0 | 3.5 | 0.00 | 0.00 | 0.00 | 67 | 1017.3 |
| 20260903164017 | 91 | 334 | 0.9 | 4.3 | 0.00 | 0.00 | 0.00 | 65 | 1017.4 |
| 20260903163515 | 91 | 5 | 0.0 | 4.3 | 0.00 | 0.00 | 0.00 | 67 | 1017.4 |
| 20260903163029 | 91 | 31 | 0.0 | 3.5 | 0.00 | 0.00 | 0.00 | 66 | 1017.4 |
| 20260903162514 | 90 | 13 | 0.0 | 2.6 | 0.00 | 0.00 | 0.00 | 69 | 1017.5 |
| 20260903162011 | 90 | 160 | 0.0 | 2.6 | 0.00 | 0.00 | 0.00 | 70 | 1017.6 |
| 20260903161528 | 89 | 47 | 0.0 | 3.5 | 0.00 | 0.00 | 0.00 | 69 | 1017.6 |
| 20260903161019 | 90 | 36 | 0.9 | 3.5 | 0.00 | 0.00 | 0.00 | 68 | 1017.6 |
| 20260903160513 | 90 | 57 | 0.9 | 3.5 | 0.00 | 0.00 | 0.00 | 68 | 1017.7 |
| 20260903160026 | 89 | 5 | 0.0 | 2.6 | 0.00 | 0.00 | 0.00 | 70 | 1017.7 |
| 20260903155518 | 90 | 337 | 0.9 | 2.6 | 0.00 | 0.00 | 0.00 | 70 | 1017.8 |
| 20260903155011 | 89 | 25 | 0.0 | 2.6 | 0.00 | 0.00 | 0.00 | 70 | 1017.7 |
| 20260903154507 | 89 | 342 | 0.0 | 2.6 | 0.00 | 0.00 | 0.00 | 69 | 1017.8 |
| 20260903154008 | 89 | 108 | 0.9 | 5.2 | 0.00 | 0.00 | 0.00 | 68 | 1017.8 |
| 20260903153512 | 89 | 267 | 1.7 | 5.2 | 0.00 | 0.00 | 0.00 | 72 | 1017.9 |
| 20260903153003 | 89 | 311 | 0.0 | 4.3 | 0.00 | 0.00 | 0.00 | 71 | 1017.9 |
| 20260903152507 | 88 | 321 | 0.0 | 2.6 | 0.00 | 0.00 | 0.00 | 71 | 1017.9 |
| 20260903152014 | 88 | 288 | 0.0 | 4.3 | 0.00 | 0.00 | 0.00 | 73 | 1018.0 |
| 20260903151510 | 87 | 347 | 0.9 | 4.3 | 0.00 | 0.00 | 0.00 | 75 | 1017.9 |
| 20260903151009 | 87 | 58 | 0.9 | 3.5 | 0.00 | 0.00 | 0.00 | 74 | 1018.0 |
| 20260903150514 | 87 | 310 | 0.0 | 1.7 | 0.00 | 0.00 | 0.00 | 75 | 1018.0 |
| 20260903150014 | 87 | 355 | 0.0 | 0.0 | 0.00 | 0.00 | 0.00 | 75 | 1018.0 |
| 20260903145507 | 86 | 282 | 0.0 | 0.0 | 0.00 | 0.00 | 0.00 | 76 | 1017.9 |
| 20260903145017 | 86 | 355 | 0.0 | 0.9 | 0.00 | 0.00 | 0.00 | 75 | 1017.8 |
| 20260903144513 | 85 | 317 | 0.0 | 3.5 | 0.00 | 0.00 | 0.00 | 76 | 1017.8 |
| 20260903144010 | 85 | 12 | 0.0 | 3.5 | 0.00 | 0.00 | 0.00 | 77 | 1017.6 |
| 20260903143513 | 85 | 317 | 1.7 | 3.5 | 0.00 | 0.00 | 0.00 | 77 | 1017.8 |
| 20260903143007 | 84 | 5 | 0.0 | 2.6 | 0.00 | 0.00 | 0.00 | 77 | 1017.5 |
| 20260903142512 | 84 | 5 | 0.0 | 1.7 | 0.00 | 0.00 | 0.00 | 78 | 1017.4 |
| 20260903142015 | 84 | 14 | 0.0 | 1.7 | 0.00 | 0.00 | 0.00 | 79 | 1017.4 |
| 20260903141512 | 84 | 347 | 0.0 | 1.7 | 0.00 | 0.00 | 0.00 | 78 | 1017.4 |
| 20260903141010 | 84 | 347 | 0.0 | 0.9 | 0.00 | 0.00 | 0.00 | 78 | 1017.4 |
| 20260903140514 | 83 | 240 | 0.0 | 1.7 | 0.00 | 0.00 | 0.00 | 80 | 1017.3 |
| 20260903140012 | 83 | 355 | 0.0 | 1.7 | 0.00 | 0.00 | 0.00 | 79 | 1017.4 |
| 20260903135510 | 83 | 311 | 0.0 | 0.0 | 0.00 | 0.00 | 0.00 | 79 | 1017.4 |
| 20260903135016 | 82 | 5 | 0.0 | 0.0 | 0.00 | 0.00 | 0.00 | 80 | 1017.4 |
| 20260903134511 | 82 | 344 | 0.0 | 0.0 | 0.00 | 0.00 | 0.00 | 81 | 1017.4 |
| 20260903134012 | 82 | 344 | 0.0 | 0.0 | 0.00 | 0.00 | 0.00 | 81 | 1017.4 |
| 20260903133504 | 81 | 355 | 0.0 | 0.0 | 0.00 | 0.00 | 0.00 | 82 | 1017.5 |
| 20260903133013 | 81 | 346 | 0.0 | 0.0 | 0.00 | 0.00 | 0.00 | 85 | 1017.4 |
| 20260903132517 | 80 | 69 | 0.0 | 0.0 | 0.00 | 0.00 | 0.00 | 85 | 1017.5 |
| 20260903132006 | 79 | 15 | 0.0 | 0.0 | 0.00 | 0.00 | 0.00 | 87 | 1017.6 |
| 20260903131516 | 79 | 20 | 0.0 | 0.0 | 0.00 | 0.00 | 0.00 | 88 | 1017.7 |
| 20260903131012 | 79 | 20 | 0.0 | 0.0 | 0.00 | 0.00 | 0.00 | 90 | 1017.7 |
| 20260903130503 | 78 | 41 | 0.0 | 0.0 | 0.00 | 0.00 | 0.00 | 90 | 1017.7 |
| 20260903130013 | 78 | 41 | 0.0 | 0.0 | 0.00 | 0.00 | 0.00 | 91 | 1017.9 |
| 20260903125515 | 77 | 34 | 0.0 | 0.0 | 0.00 | 0.00 | 0.00 | 92 | 1018.0 |
| 20260903125004 | 77 | 344 | 0.0 | 0.0 | 0.00 | 0.00 | 0.00 | 93 | 1018.0 |
| 20260903124514 | 76 | 344 | 0.0 | 0.0 | 0.00 | 0.00 | 0.00 | 94 | 1018.0 |
| 20260903124013 | 76 | 344 | 0.0 | 0.0 | 0.00 | 0.00 | 0.00 | 95 | 1018.0 |
| 20260903123511 | 75 | 344 | 0.0 | 0.0 | 0.00 | 0.00 | 0.00 | 95 | 1018.0 |
| 20260903123015 | 75 | 344 | 0.0 | 0.0 | 0.00 | 0.00 | 0.00 | 95 | 1017.9 |
| 20260903122517 | 75 | 344 | 0.0 | 0.0 | 0.00 | 0.00 | 0.00 | 96 | 1017.9 |
| 20260903122006 | 74 | 344 | 0.0 | 0.0 | 0.00 | 0.00 | 0.00 | 96 | 1017.9 |
| 20260903121526 | 74 | 344 | 0.0 | 0.0 | 0.00 | 0.00 | 0.00 | 96 | 1017.9 |
| 20260903121016 | 74 | 344 | 0.0 | 0.0 | 0.00 | 0.00 | 0.00 | 96 | 1017.9 |
| 20260903120506 | 74 | 344 | 0.0 | 0.0 | 0.00 | 0.00 | 0.00 | 96 | 1017.9 |
| 20260903120022 | 74 | 345 | 0.0 | 0.0 | 0.00 | 0.00 | 0.00 | 96 | 1017.9 |